Nenana, AK

5:08 PM AKDT on July 20, 2017 (GMT -0800)
Nenana Municipal

Weather History for PANN - April, 2014

Change the Weather History Date:

Friday, April 18, 2014

  Actual Average Record
Temperature  
Mean Temperature 44 °F -  
Max Temperature 53 °F 42 °F 61 °F (1994)
Min Temperature 32 °F 21 °F 5 °F (2005)
Degree Days  
Heating Degree Days 21    
Moisture  
Dew Point 28 °F    
Average Humidity 68    
Maximum Humidity 92    
Minimum Humidity 34    
Precipitation  
Precipitation 0.04 in - - ()
Sea Level Pressure  
Sea Level Pressure 29.51 in    
Wind  
Wind Speed 2 mph (NE)    
Max Wind Speed 14 mph    
Max Gust Speed -    
Visibility 10 miles    
Events Rain    
Averages and records for this station are not official NWS values.
T = Trace of Precipitation, MM = Missing Value Source: NWS Daily Summary

Daily Weather History Graph

Daily Weather History Graph

Search for Another Location

Airport or City:

Trip Planner

Search our weather history database for the weather conditions in past years. The results will help you decide how hot, cold, wet, or windy it might be!

Date:

Astronomy

Apr. 18, 2014 Rise Set
Actual Time 6:11 AM AKDT 9:42 PM AKDT
Civil Twilight 5:12 AM AKDT 10:41 PM AKDT
Nautical Twilight 3:40 AM AKDT 12:16 AM AKDT
Astronomical Twilight Sun does not set Sun does not set
Moon 1:29 AM AKDT (4/18) 7:45 AM AKDT (4/18)
Length of Visible Light 17h 28m
Length of Day
15h 30m
Waning Gibbous, 86% of the Moon is Illuminated
Apr 18
Waning Gibbous
Apr 21
Last Quarter
Apr 28
New
May 6
First Quarter
May 14
Full

Hourly Weather History & Observations

Time (AKDT) Temp. Windchill Dew Point Humidity Pressure Visibility Wind Dir Wind Speed Gust Speed Precip Events Conditions
12:53 AM 33.1 °F - 28.0 °F 82% 29.38 in 10.0 mi Calm Calm - N/A   Partly Cloudy
1:53 AM 30.0 °F 26.5 °F 26.1 °F 85% 29.38 in 10.0 mi West 3.5 mph - N/A   Clear
2:53 AM 28.9 °F - 25.0 °F 85% 29.39 in 10.0 mi Calm Calm - N/A   Clear
3:53 AM 28.9 °F - 26.1 °F 89% 29.38 in 10.0 mi Calm Calm - N/A   Clear
4:53 AM 27.0 °F - 24.1 °F 89% 29.38 in 10.0 mi Calm Calm - N/A   Clear
5:53 AM 27.0 °F - 24.1 °F 89% 29.39 in 10.0 mi Calm Calm - N/A   Partly Cloudy
6:53 AM 27.0 °F - 25.0 °F 92% 29.39 in 10.0 mi Calm Calm - N/A   Clear
7:53 AM 30.9 °F - 27.0 °F 85% 29.40 in 10.0 mi Calm Calm - N/A   Clear
8:53 AM 35.1 °F - 30.0 °F 82% 29.41 in 10.0 mi Calm Calm - N/A   Clear
9:53 AM 37.0 °F - 30.0 °F 76% 29.42 in 10.0 mi Calm Calm - N/A   Clear
10:53 AM 42.1 °F - 30.0 °F 62% 29.43 in 10.0 mi Calm Calm - N/A   Clear
11:53 AM 45.0 °F 40.6 °F 28.0 °F 52% 29.44 in 10.0 mi East 8.1 mph - N/A   Clear
1:53 PM 48.0 °F - 28.0 °F 46% 29.46 in 10.0 mi East 3.5 mph - N/A   Scattered Clouds
2:53 PM 50.0 °F - 27.0 °F 41% 29.47 in 10.0 mi NE 3.5 mph - N/A   Overcast
4:53 PM 51.1 °F - 26.1 °F 38% 29.48 in 10.0 mi Calm Calm - N/A   Clear
5:53 PM 53.1 °F - 25.0 °F 34% 29.49 in 10.0 mi North 3.5 mph - N/A   Clear
7:53 PM 52.0 °F - 25.0 °F 35% 29.50 in - Calm Calm - N/A   Unknown
8:53 PM 48.9 °F - 26.1 °F 41% 29.52 in 10.0 mi Calm Calm - N/A   Clear
9:53 PM 39.9 °F - 25.0 °F 55% 29.54 in 10.0 mi Calm Calm - N/A   Scattered Clouds
10:53 PM 35.1 °F - 26.1 °F 70% 29.56 in 10.0 mi Calm Calm - N/A   Clear
11:53 PM 32.0 °F - 26.1 °F 79% 29.57 in 10.0 mi Calm Calm - N/A   Clear